Location: Avully
(45.9633°N, 6.0228°E)
Time: 13:56:00
(UTC+00:00)

GP-B - Pass Details

Date: 23 May 2024
Orbit: 624 x 629 km, 89.8° (Epoch: 16 June)

Event Time Altitude Azimuth Distance (km) Brightness Sun altitude
Rises 00:28:21 0° 353° (N) 2,922 7.7 -22.2°
Reaches altitude 10° 00:30:44 10° 344° (NNW) 2,010 6.5 -22.1°
Maximum altitude 00:34:41 33° 280° (W) 1,050 4.1 -21.9°
Enters shadow 00:35:09 32° 267° (W) 1,068 4.1 -21.9°
